Time,TemperatureF,DewpointF,PressureIn,WindDirection,WindDirectionDegrees,WindSpeedMPH,WindSpeedGustMPH,Humidity,HourlyPrecipIn,Conditions,Clouds,dailyrainin,SoftwareType,DateUTC
2013-05-08 00:01:00,63.3,55.2,30.04,NE,45,0.0,0.0,75,0.00,,,0.00,WUHU21623XXSP,2013-05-08 04:01:00,
2013-05-08 00:06:00,63.3,55.2,30.04,NE,45,0.0,0.0,75,0.00,,,0.00,WUHU21623XXSP,2013-05-08 04:06:00,
2013-05-08 00:11:00,63.3,55.6,30.04,NE,45,0.0,1.1,76,0.00,,,0.00,WUHU21623XXSP,2013-05-08 04:11:00,
2013-05-08 00:16:00,63.3,55.6,30.04,NE,45,0.0,1.1,76,0.00,,,0.00,WUHU21623XXSP,2013-05-08 04:16:00,
2013-05-08 00:21:00,63.1,55.4,30.04,NE,45,0.0,0.0,76,0.00,,,0.00,WUHU21623XXSP,2013-05-08 04:21:00,
2013-05-08 00:26:00,63.1,55.4,30.03,NE,45,0.0,0.0,76,0.00,,,0.00,WUHU21623XXSP,2013-05-08 04:26:00,
2013-05-08 00:31:00,63.1,55.4,30.03,NE,45,1.1,1.1,76,0.00,,,0.00,WUHU21623XXSP,2013-05-08 04:31:00,
2013-05-08 00:36:00,63.1,55.4,30.04,NE,45,0.0,1.1,76,0.00,,,0.00,WUHU21623XXSP,2013-05-08 04:36:00,
2013-05-08 00:41:00,63.0,55.2,30.03,NE,45,0.0,0.9,76,0.00,,,0.00,WUHU21623XXSP,2013-05-08 04:41:00,
2013-05-08 00:46:00,63.0,55.2,30.04,NE,45,0.0,0.0,76,0.00,,,0.00,WUHU21623XXSP,2013-05-08 04:46:00,
2013-05-08 00:51:00,62.8,55.0,30.04,NE,45,0.0,0.0,76,0.00,,,0.00,WUHU21623XXSP,2013-05-08 04:51:00,
2013-05-08 00:58:00,62.4,55.1,30.04,NE,45,0.0,0.0,77,0.00,,,0.00,WUHU21623XXSP,2013-05-08 04:58:00,
2013-05-08 00:59:00,62.4,55.2,30.04,NE,45,0.0,0.0,77,0.00,,,0.00,WUHU21623XXSP,2013-05-08 04:59:00,
2013-05-08 01:03:00,62.4,55.1,30.04,NE,45,0.0,0.0,77,0.00,,,0.00,WUHU21623XXSP,2013-05-08 05:03:00,
2013-05-08 01:08:00,62.4,55.1,30.03,NE,45,0.0,0.0,77,0.00,,,0.00,WUHU21623XXSP,2013-05-08 05:08:00,
2013-05-08 01:13:00,62.4,55.1,30.03,NE,45,0.0,0.0,77,0.00,,,0.00,WUHU21623XXSP,2013-05-08 05:13:00,
2013-05-08 01:18:00,62.2,54.9,30.03,NE,45,0.0,0.0,77,0.00,,,0.00,WUHU21623XXSP,2013-05-08 05:18:00,
2013-05-08 01:23:00,61.7,54.4,30.03,NE,45,0.0,0.0,77,0.00,,,0.00,WUHU21623XXSP,2013-05-08 05:23:00,
2013-05-08 01:28:00,61.5,54.2,30.03,NE,45,0.0,0.0,77,0.00,,,0.00,WUHU21623XXSP,2013-05-08 05:28:00,
2013-05-08 01:33:00,61.2,53.9,30.03,NE,45,0.0,0.0,77,0.00,,,0.00,WUHU21623XXSP,2013-05-08 05:33:00,
2013-05-08 01:38:00,60.8,53.6,30.03,NE,45,0.0,0.0,77,0.00,,,0.00,WUHU21623XXSP,2013-05-08 05:38:00,
2013-05-08 01:43:00,60.6,53.4,30.03,NE,45,0.0,0.0,78,0.00,,,0.00,WUHU21623XXSP,2013-05-08 05:43:00,
2013-05-08 01:48:00,60.4,53.6,30.03,NE,45,0.0,0.0,78,0.00,,,0.00,WUHU21623XXSP,2013-05-08 05:48:00,
2013-05-08 01:53:00,60.3,53.4,30.03,NE,45,0.0,0.0,78,0.00,,,0.00,WUHU21623XXSP,2013-05-08 05:53:00,
2013-05-08 01:58:00,60.4,53.6,30.03,NE,45,0.0,0.0,78,0.00,,,0.00,WUHU21623XXSP,2013-05-08 05:58:00,
2013-05-08 01:59:00,60.4,53.6,30.02,NE,45,0.0,0.0,78,0.00,,,0.00,WUHU21623XXSP,2013-05-08 05:59:00,
2013-05-08 02:03:00,60.3,53.8,30.02,NE,45,0.0,0.0,79,0.00,,,0.00,WUHU21623XXSP,2013-05-08 06:03:00,
2013-05-08 02:08:00,60.3,54.0,30.02,NE,45,0.0,0.0,79,0.00,,,0.00,WUHU21623XXSP,2013-05-08 06:08:00,
2013-05-08 02:13:00,60.1,53.6,30.02,NE,45,0.0,0.0,79,0.00,,,0.00,WUHU21623XXSP,2013-05-08 06:13:00,
2013-05-08 02:18:00,60.1,53.6,30.02,NE,45,0.0,0.0,79,0.00,,,0.00,WUHU21623XXSP,2013-05-08 06:18:00,
2013-05-08 02:23:00,59.9,53.4,30.02,NE,45,0.0,0.0,79,0.00,,,0.00,WUHU21623XXSP,2013-05-08 06:23:00,
2013-05-08 02:28:00,59.7,53.2,30.02,NE,45,0.0,0.0,79,0.00,,,0.00,WUHU21623XXSP,2013-05-08 06:28:00,
2013-05-08 02:33:00,59.7,53.6,30.02,NE,45,0.0,0.0,80,0.00,,,0.00,WUHU21623XXSP,2013-05-08 06:33:00,
2013-05-08 02:38:00,59.5,53.4,30.02,NE,45,0.0,0.0,80,0.00,,,0.00,WUHU21623XXSP,2013-05-08 06:38:00,
2013-05-08 02:43:00,59.5,53.4,30.02,NE,45,0.0,0.0,80,0.00,,,0.00,WUHU21623XXSP,2013-05-08 06:43:00,
2013-05-08 02:48:00,59.5,53.4,30.02,NE,45,0.0,0.0,80,0.00,,,0.00,WUHU21623XXSP,2013-05-08 06:48:00,
2013-05-08 02:53:00,59.5,53.4,30.02,NE,45,0.0,0.0,80,0.00,,,0.00,WUHU21623XXSP,2013-05-08 06:53:00,
2013-05-08 02:58:00,59.5,53.7,30.02,NE,45,0.0,0.0,81,0.00,,,0.00,WUHU21623XXSP,2013-05-08 06:58:00,
2013-05-08 02:59:00,59.5,53.7,30.02,NE,45,0.0,0.0,81,0.00,,,0.00,WUHU21623XXSP,2013-05-08 06:59:00,
2013-05-08 03:03:00,59.5,53.7,30.02,NE,45,0.0,0.0,81,0.00,,,0.00,WUHU21623XXSP,2013-05-08 07:03:00,
2013-05-08 03:08:00,59.4,53.6,30.02,NE,45,0.0,0.0,81,0.00,,,0.00,WUHU21623XXSP,2013-05-08 07:08:00,
2013-05-08 03:13:00,59.2,53.4,30.02,NE,45,0.0,0.0,81,0.00,,,0.00,WUHU21623XXSP,2013-05-08 07:13:00,
2013-05-08 03:18:00,59.2,53.7,30.02,NE,45,0.0,0.0,82,0.00,,,0.00,WUHU21623XXSP,2013-05-08 07:18:00,
2013-05-08 03:23:00,59.0,53.5,30.02,NE,45,0.0,0.0,82,0.00,,,0.00,WUHU21623XXSP,2013-05-08 07:23:00,
2013-05-08 03:28:00,58.8,53.3,30.02,NE,45,0.0,0.0,82,0.00,,,0.00,WUHU21623XXSP,2013-05-08 07:28:00,
2013-05-08 03:33:00,58.8,53.3,30.02,NE,45,0.0,0.0,82,0.00,,,0.00,WUHU21623XXSP,2013-05-08 07:33:00,
2013-05-08 03:38:00,58.8,53.3,30.02,NE,45,0.0,0.0,82,0.00,,,0.00,WUHU21623XXSP,2013-05-08 07:38:00,
2013-05-08 03:43:00,58.8,53.3,30.02,NE,45,0.0,0.0,82,0.00,,,0.00,WUHU21623XXSP,2013-05-08 07:43:00,
2013-05-08 03:48:00,58.8,53.7,30.02,NE,45,0.0,0.0,83,0.00,,,0.00,WUHU21623XXSP,2013-05-08 07:48:00,
2013-05-08 03:53:00,58.3,53.3,30.02,NE,45,0.0,0.0,83,0.00,,,0.00,WUHU21623XXSP,2013-05-08 07:53:00,
2013-05-08 03:58:00,58.3,53.1,30.02,NE,45,0.0,0.0,83,0.00,,,0.00,WUHU21623XXSP,2013-05-08 07:58:00,
2013-05-08 03:59:00,58.3,53.2,30.02,NE,45,0.0,0.0,83,0.00,,,0.00,WUHU21623XXSP,2013-05-08 07:59:00,
2013-05-08 04:03:00,57.9,52.8,30.02,NE,45,0.0,0.0,83,0.00,,,0.00,WUHU21623XXSP,2013-05-08 08:03:00,
2013-05-08 04:08:00,57.7,52.6,30.02,NE,45,0.0,0.0,83,0.00,,,0.00,WUHU21623XXSP,2013-05-08 08:08:00,
2013-05-08 04:13:00,57.6,52.7,30.02,NE,45,0.0,0.0,84,0.00,,,0.00,WUHU21623XXSP,2013-05-08 08:13:00,
2013-05-08 04:18:00,57.4,52.6,30.02,NE,45,0.0,0.0,84,0.00,,,0.00,WUHU21623XXSP,2013-05-08 08:18:00,
2013-05-08 04:23:00,57.0,52.2,30.02,NE,45,0.0,0.0,84,0.00,,,0.00,WUHU21623XXSP,2013-05-08 08:23:00,
2013-05-08 04:28:00,56.8,52.0,30.02,NE,45,0.0,0.0,84,0.00,,,0.00,WUHU21623XXSP,2013-05-08 08:28:00,
2013-05-08 04:33:00,56.8,52.0,30.02,NE,45,0.0,0.0,84,0.00,,,0.00,WUHU21623XXSP,2013-05-08 08:33:00,
2013-05-08 04:38:00,56.8,52.0,30.02,NE,45,0.0,0.0,84,0.00,,,0.00,WUHU21623XXSP,2013-05-08 08:38:00,
2013-05-08 04:44:00,56.5,51.7,30.01,NE,45,0.0,0.0,84,0.00,,,0.00,WUHU21623XXSP,2013-05-08 08:44:00,
2013-05-08 04:48:00,56.5,52.0,30.01,NE,45,0.0,0.0,85,0.00,,,0.00,WUHU21623XXSP,2013-05-08 08:48:00,
2013-05-08 04:54:00,56.1,51.6,30.01,NE,45,0.0,0.0,85,0.00,,,0.00,WUHU21623XXSP,2013-05-08 08:54:00,
2013-05-08 04:58:00,56.1,51.6,30.01,NE,45,0.0,0.0,85,0.00,,,0.00,WUHU21623XXSP,2013-05-08 08:58:00,
2013-05-08 04:59:00,56.1,51.7,30.02,NE,45,0.0,0.0,85,0.00,,,0.00,WUHU21623XXSP,2013-05-08 08:59:00,
2013-05-08 05:03:00,56.1,51.6,30.02,NE,45,0.0,0.0,85,0.00,,,0.00,WUHU21623XXSP,2013-05-08 09:03:00,
2013-05-08 05:08:00,56.3,51.8,30.02,NE,45,0.0,0.0,85,0.00,,,0.00,WUHU21623XXSP,2013-05-08 09:08:00,
2013-05-08 05:13:00,56.3,51.8,30.02,NE,45,0.0,0.0,85,0.00,,,0.00,WUHU21623XXSP,2013-05-08 09:13:00,
2013-05-08 05:19:00,56.3,51.8,30.02,NE,45,0.0,0.0,85,0.00,,,0.00,WUHU21623XXSP,2013-05-08 09:19:00,
2013-05-08 05:24:00,56.5,52.0,30.02,NE,45,0.0,0.0,85,0.00,,,0.00,WUHU21623XXSP,2013-05-08 09:24:00,
2013-05-08 05:29:00,56.3,52.1,30.02,NNE,22,0.0,0.0,86,0.00,,,0.00,WUHU21623XXSP,2013-05-08 09:29:00,
2013-05-08 05:33:00,56.1,51.9,30.02,NNE,22,0.0,0.0,86,0.00,,,0.00,WUHU21623XXSP,2013-05-08 09:33:00,
2013-05-08 05:39:00,56.1,51.9,30.02,NNE,22,0.0,0.0,86,0.00,,,0.00,WUHU21623XXSP,2013-05-08 09:39:00,
2013-05-08 05:44:00,55.9,51.8,30.02,NNE,22,0.0,0.0,86,0.00,,,0.00,WUHU21623XXSP,2013-05-08 09:44:00,
2013-05-08 05:49:00,55.8,51.6,30.02,NNE,22,0.0,0.0,86,0.00,,,0.00,WUHU21623XXSP,2013-05-08 09:49:00,
2013-05-08 05:54:00,55.6,51.4,30.02,NNE,22,0.0,0.0,86,0.00,,,0.00,WUHU21623XXSP,2013-05-08 09:54:00,
2013-05-08 05:59:00,55.6,51.4,30.02,NNE,22,0.0,0.0,86,0.00,,,0.00,WUHU21623XXSP,2013-05-08 09:59:00,
2013-05-08 06:04:00,55.6,51.4,30.02,NNE,22,0.0,0.0,86,0.00,,,0.00,WUHU21623XXSP,2013-05-08 10:04:00,
2013-05-08 06:09:00,55.8,51.6,30.02,NNE,22,0.0,0.0,86,0.00,,,0.00,WUHU21623XXSP,2013-05-08 10:09:00,
2013-05-08 06:14:00,55.6,51.7,30.02,NNE,22,0.0,0.0,87,0.00,,,0.00,WUHU21623XXSP,2013-05-08 10:14:00,
2013-05-08 06:19:00,55.6,51.7,30.02,NNE,22,0.0,0.0,87,0.00,,,0.00,WUHU21623XXSP,2013-05-08 10:19:00,
2013-05-08 06:24:00,55.4,51.5,30.02,NNE,22,0.0,0.0,87,0.00,,,0.00,WUHU21623XXSP,2013-05-08 10:24:00,
2013-05-08 06:29:00,55.4,51.5,30.03,NNE,22,0.0,0.0,87,0.00,,,0.00,WUHU21623XXSP,2013-05-08 10:29:00,
2013-05-08 06:34:00,55.2,51.4,30.03,NNE,22,0.0,0.0,87,0.00,,,0.00,WUHU21623XXSP,2013-05-08 10:34:00,
2013-05-08 06:39:00,55.0,51.2,30.03,NNE,22,0.0,0.0,87,0.00,,,0.00,WUHU21623XXSP,2013-05-08 10:39:00,
2013-05-08 06:44:00,55.0,51.2,30.03,NNW,337,0.0,0.0,87,0.00,,,0.00,WUHU21623XXSP,2013-05-08 10:44:00,
2013-05-08 06:49:00,55.0,51.2,30.04,NNW,337,0.0,0.0,87,0.00,,,0.00,WUHU21623XXSP,2013-05-08 10:49:00,
2013-05-08 06:54:00,54.9,51.0,30.04,North,0,0.0,0.0,87,0.00,,,0.00,WUHU21623XXSP,2013-05-08 10:54:00,
2013-05-08 06:59:00,54.7,50.8,30.04,North,0,0.0,0.0,87,0.00,,,0.00,WUHU21623XXSP,2013-05-08 10:59:00,
2013-05-08 07:04:00,54.7,50.8,30.04,North,0,0.0,0.0,87,0.00,,,0.00,WUHU21623XXSP,2013-05-08 11:04:00,
2013-05-08 07:09:00,54.9,51.0,30.04,NNW,337,0.0,0.0,87,0.00,,,0.00,WUHU21623XXSP,2013-05-08 11:09:00,
2013-05-08 07:14:00,54.9,51.3,30.04,North,0,0.0,0.0,88,0.00,,,0.00,WUHU21623XXSP,2013-05-08 11:14:00,
2013-05-08 07:19:00,55.0,51.5,30.04,North,0,0.0,0.0,88,0.00,,,0.00,WUHU21623XXSP,2013-05-08 11:19:00,
2013-05-08 07:24:00,55.2,51.7,30.05,North,0,0.0,0.0,88,0.00,,,0.00,WUHU21623XXSP,2013-05-08 11:24:00,
2013-05-08 07:29:00,55.2,51.7,30.04,North,0,0.0,0.0,88,0.00,,,0.00,WUHU21623XXSP,2013-05-08 11:29:00,
2013-05-08 07:34:00,55.8,52.2,30.05,North,0,0.0,0.0,88,0.00,,,0.00,WUHU21623XXSP,2013-05-08 11:34:00,
2013-05-08 07:39:00,55.9,52.4,30.05,North,0,0.0,0.0,88,0.00,,,0.00,WUHU21623XXSP,2013-05-08 11:39:00,
2013-05-08 07:44:00,56.3,52.8,30.05,North,0,0.0,0.0,88,0.00,,,0.00,WUHU21623XXSP,2013-05-08 11:44:00,
2013-05-08 07:49:00,56.8,53.3,30.05,NNW,337,0.0,0.0,88,0.00,,,0.00,WUHU21623XXSP,2013-05-08 11:49:00,
2013-05-08 07:54:00,57.0,53.3,30.05,NNW,337,0.0,0.0,89,0.00,,,0.00,WUHU21623XXSP,2013-05-08 11:54:00,
2013-05-08 07:59:00,57.7,54.5,30.06,North,0,0.0,0.0,89,0.00,,,0.00,WUHU21623XXSP,2013-05-08 11:59:00,
2013-05-08 08:04:00,58.6,55.4,30.06,NE,45,0.0,0.0,89,0.00,,,0.00,WUHU21623XXSP,2013-05-08 12:04:00,
2013-05-08 08:09:00,58.8,55.6,30.06,NNE,22,0.0,0.0,89,0.00,,,0.00,WUHU21623XXSP,2013-05-08 12:09:00,
2013-05-08 08:14:00,59.2,56.0,30.06,NNE,22,0.0,0.0,89,0.00,,,0.00,WUHU21623XXSP,2013-05-08 12:14:00,
2013-05-08 08:19:00,59.4,56.2,30.06,NE,45,0.0,0.0,89,0.00,,,0.00,WUHU21623XXSP,2013-05-08 12:19:00,
2013-05-08 08:24:00,59.7,56.5,30.06,NE,45,0.0,0.0,89,0.00,,,0.00,WUHU21623XXSP,2013-05-08 12:24:00,
2013-05-08 08:29:00,60.1,56.9,30.06,NNE,22,0.0,0.0,89,0.00,,,0.00,WUHU21623XXSP,2013-05-08 12:29:00,
2013-05-08 08:34:00,60.4,57.2,30.06,NNE,22,0.0,0.0,89,0.00,,,0.00,WUHU21623XXSP,2013-05-08 12:34:00,
2013-05-08 08:39:00,60.6,57.4,30.06,North,0,3.8,3.8,89,0.00,,,0.00,WUHU21623XXSP,2013-05-08 12:39:00,
2013-05-08 08:44:00,61.0,57.8,30.06,North,0,3.4,3.8,89,0.00,,,0.00,WUHU21623XXSP,2013-05-08 12:44:00,
2013-05-08 08:49:00,61.5,58.3,30.07,North,0,6.5,6.5,89,0.00,,,0.00,WUHU21623XXSP,2013-05-08 12:49:00,
2013-05-08 08:54:00,62.1,58.5,30.07,North,0,6.0,6.5,88,0.00,,,0.00,WUHU21623XXSP,2013-05-08 12:54:00,
2013-05-08 08:59:00,62.4,58.9,30.07,North,0,7.2,7.2,88,0.00,,,0.00,WUHU21623XXSP,2013-05-08 12:59:00,
2013-05-08 09:04:00,63.0,59.1,30.07,North,0,4.7,7.2,87,0.00,,,0.00,WUHU21623XXSP,2013-05-08 13:04:00,
2013-05-08 09:09:00,63.5,59.6,30.07,NNW,337,7.6,7.6,87,0.00,,,0.00,WUHU21623XXSP,2013-05-08 13:09:00,
2013-05-08 09:14:00,64.0,59.8,30.07,NNW,337,5.8,7.6,86,0.00,,,0.00,WUHU21623XXSP,2013-05-08 13:14:00,
2013-05-08 09:19:00,64.6,59.6,30.07,North,0,6.3,7.4,85,0.00,,,0.00,WUHU21623XXSP,2013-05-08 13:19:00,
2013-05-08 09:24:00,65.1,59.8,30.07,North,0,5.8,6.5,83,0.00,,,0.00,WUHU21623XXSP,2013-05-08 13:24:00,
2013-05-08 09:29:00,65.5,60.0,30.07,North,0,7.6,7.6,82,0.00,,,0.00,WUHU21623XXSP,2013-05-08 13:29:00,
2013-05-08 09:34:00,66.0,60.0,30.07,North,0,6.0,7.6,81,0.00,,,0.00,WUHU21623XXSP,2013-05-08 13:34:00,
2013-05-08 09:39:00,66.4,59.7,30.07,NNW,337,6.9,6.9,80,0.00,,,0.00,WUHU21623XXSP,2013-05-08 13:39:00,
2013-05-08 09:44:00,66.6,59.5,30.07,NNW,337,6.7,6.9,78,0.00,,,0.00,WUHU21623XXSP,2013-05-08 13:44:00,
2013-05-08 09:49:00,66.9,59.7,30.07,North,0,7.2,7.2,77,0.00,,,0.00,WUHU21623XXSP,2013-05-08 13:49:00,
2013-05-08 09:54:00,67.3,59.3,30.07,North,0,6.7,8.1,76,0.00,,,0.00,WUHU21623XXSP,2013-05-08 13:54:00,
2013-05-08 09:59:00,67.5,59.3,30.07,NW,315,6.5,8.1,75,0.00,,,0.00,WUHU21623XXSP,2013-05-08 13:59:00,
2013-05-08 10:04:00,67.8,58.9,30.07,North,0,6.9,7.2,73,0.00,,,0.00,WUHU21623XXSP,2013-05-08 14:04:00,
2013-05-08 10:09:00,68.0,58.7,30.07,NNW,337,8.3,8.3,72,0.00,,,0.00,WUHU21623XXSP,2013-05-08 14:09:00,
2013-05-08 10:14:00,68.4,58.5,30.07,NNW,337,4.3,8.3,70,0.00,,,0.00,WUHU21623XXSP,2013-05-08 14:14:00,
2013-05-08 10:19:00,68.7,58.4,30.07,NNW,337,6.5,6.5,69,0.00,,,0.00,WUHU21623XXSP,2013-05-08 14:19:00,
2013-05-08 10:24:00,68.9,58.3,30.07,NW,315,8.7,8.7,69,0.00,,,0.00,WUHU21623XXSP,2013-05-08 14:24:00,
2013-05-08 10:29:00,69.1,58.0,30.07,NW,315,8.7,8.7,68,0.00,,,0.00,WUHU21623XXSP,2013-05-08 14:29:00,
2013-05-08 10:34:00,69.6,58.1,30.07,North,0,5.4,8.7,67,0.00,,,0.00,WUHU21623XXSP,2013-05-08 14:34:00,
2013-05-08 10:39:00,69.6,57.7,30.07,NNW,337,9.2,9.2,66,0.00,,,0.00,WUHU21623XXSP,2013-05-08 14:39:00,
2013-05-08 10:44:00,70.2,58.6,30.07,NNW,337,8.3,9.2,67,0.00,,,0.00,WUHU21623XXSP,2013-05-08 14:44:00,
2013-05-08 10:49:00,70.3,58.4,30.07,NW,315,5.8,8.3,66,0.00,,,0.00,WUHU21623XXSP,2013-05-08 14:49:00,
2013-05-08 10:54:00,70.5,58.6,30.07,NW,315,6.0,8.1,66,0.00,,,0.00,WUHU21623XXSP,2013-05-08 14:54:00,
2013-05-08 10:59:00,70.7,58.3,30.07,NW,315,6.7,7.2,65,0.00,,,0.00,WUHU21623XXSP,2013-05-08 14:59:00,
2013-05-08 11:04:00,70.9,58.1,30.07,NNW,337,6.9,9.8,64,0.00,,,0.00,WUHU21623XXSP,2013-05-08 15:04:00,
2013-05-08 11:09:00,71.2,58.4,30.07,North,0,6.7,9.8,64,0.00,,,0.00,WUHU21623XXSP,2013-05-08 15:09:00,
2013-05-08 11:14:00,71.4,58.1,30.07,North,0,6.3,9.8,63,0.00,,,0.00,WUHU21623XXSP,2013-05-08 15:14:00,
2013-05-08 11:19:00,71.4,57.7,30.07,NNW,337,6.5,9.8,62,0.00,,,0.00,WUHU21623XXSP,2013-05-08 15:19:00,
2013-05-08 11:24:00,71.8,58.0,30.07,NW,315,5.6,7.8,62,0.00,,,0.00,WUHU21623XXSP,2013-05-08 15:24:00,
2013-05-08 11:29:00,72.0,58.2,30.07,NW,315,5.8,7.6,62,0.00,,,0.00,WUHU21623XXSP,2013-05-08 15:29:00,
2013-05-08 11:34:00,72.3,58.1,30.07,North,0,6.5,6.7,62,0.00,,,0.00,WUHU21623XXSP,2013-05-08 15:34:00,
2013-05-08 11:39:00,72.7,58.4,30.07,North,0,5.4,8.5,61,0.00,,,0.00,WUHU21623XXSP,2013-05-08 15:39:00,
2013-05-08 11:44:00,73.0,57.3,30.07,NE,45,5.6,8.5,58,0.00,,,0.00,WUHU21623XXSP,2013-05-08 15:44:00,
2013-05-08 11:49:00,73.9,58.2,30.07,NNE,22,5.4,10.7,58,0.00,,,0.00,WUHU21623XXSP,2013-05-08 15:49:00,
2013-05-08 11:54:00,74.8,58.6,30.07,NNE,22,8.9,10.7,57,0.00,,,0.00,WUHU21623XXSP,2013-05-08 15:54:00,
2013-05-08 11:59:00,75.4,58.6,30.07,North,0,8.9,9.4,56,0.00,,,0.00,WUHU21623XXSP,2013-05-08 15:59:00,
2013-05-08 12:04:00,75.9,58.6,30.07,WSW,247,0.0,9.4,55,0.00,,,0.00,WUHU21623XXSP,2013-05-08 16:04:00,
2013-05-08 12:09:00,76.5,58.7,30.07,NNE,22,2.9,8.9,55,0.00,,,0.00,WUHU21623XXSP,2013-05-08 16:09:00,
2013-05-08 12:14:00,77.2,58.7,30.06,North,0,7.2,11.0,53,0.00,,,0.00,WUHU21623XXSP,2013-05-08 16:14:00,
2013-05-08 12:19:00,77.4,58.4,30.07,North,0,2.0,11.0,52,0.00,,,0.00,WUHU21623XXSP,2013-05-08 16:19:00,
2013-05-08 12:24:00,77.7,58.7,30.06,WSW,247,4.5,10.1,52,0.00,,,0.00,WUHU21623XXSP,2013-05-08 16:24:00,
2013-05-08 12:29:00,77.2,57.8,30.06,NNW,337,2.7,7.4,51,0.00,,,0.00,WUHU21623XXSP,2013-05-08 16:29:00,
2013-05-08 12:34:00,77.0,58.5,30.06,West,270,0.0,7.4,53,0.00,,,0.00,WUHU21623XXSP,2013-05-08 16:34:00,
2013-05-08 12:39:00,77.5,58.7,30.06,North,0,1.3,3.1,53,0.00,,,0.00,WUHU21623XXSP,2013-05-08 16:39:00,
2013-05-08 12:44:00,78.1,59.0,30.06,NNW,337,8.1,8.1,51,0.00,,,0.00,WUHU21623XXSP,2013-05-08 16:44:00,
2013-05-08 12:49:00,77.4,57.3,30.06,NNE,22,8.7,8.7,50,0.00,,,0.00,WUHU21623XXSP,2013-05-08 16:49:00,
2013-05-08 12:54:00,76.8,57.4,30.06,NNE,22,6.9,8.7,51,0.00,,,0.00,WUHU21623XXSP,2013-05-08 16:54:00,
2013-05-08 12:59:00,76.6,57.2,30.06,NE,45,6.3,6.9,51,0.00,,,0.00,WUHU21623XXSP,2013-05-08 16:59:00,
2013-05-08 13:05:00,76.5,57.0,30.06,NNE,22,5.8,7.2,50,0.00,,,0.00,WUHU21623XXSP,2013-05-08 17:05:00,
2013-05-08 13:10:00,76.8,56.9,30.06,North,0,5.8,8.3,50,0.00,,,0.00,WUHU21623XXSP,2013-05-08 17:10:00,
2013-05-08 13:15:00,77.5,58.0,30.06,NNW,337,0.0,8.3,51,0.00,,,0.00,WUHU21623XXSP,2013-05-08 17:15:00,
2013-05-08 13:20:00,79.3,60.2,30.05,WNW,292,3.1,6.9,52,0.00,,,0.00,WUHU21623XXSP,2013-05-08 17:20:00,
2013-05-08 13:25:00,80.2,59.9,30.05,SSW,202,2.5,6.9,50,0.00,,,0.00,WUHU21623XXSP,2013-05-08 17:25:00,
2013-05-08 13:30:00,80.8,59.8,30.05,NNW,337,3.6,6.7,49,0.00,,,0.00,WUHU21623XXSP,2013-05-08 17:30:00,
2013-05-08 13:35:00,80.8,58.6,30.05,NNW,337,6.0,8.7,47,0.00,,,0.00,WUHU21623XXSP,2013-05-08 17:35:00,
2013-05-08 13:40:00,79.9,57.2,30.05,North,0,7.2,8.7,46,0.00,,,0.00,WUHU21623XXSP,2013-05-08 17:40:00,
2013-05-08 13:45:00,79.0,56.4,30.05,North,0,7.4,8.3,46,0.00,,,0.00,WUHU21623XXSP,2013-05-08 17:45:00,
2013-05-08 13:50:00,77.5,55.1,30.05,NNE,22,7.4,7.4,46,0.00,,,0.00,WUHU21623XXSP,2013-05-08 17:50:00,
2013-05-08 13:55:00,76.8,55.0,30.05,NE,45,7.8,7.8,47,0.00,,,0.00,WUHU21623XXSP,2013-05-08 17:55:00,
2013-05-08 13:59:00,76.6,55.5,30.05,NNE,23,6.5,6.5,48,0.00,,,0.00,WUHU21623XXSP,2013-05-08 17:59:00,
2013-05-08 14:00:00,76.5,55.3,30.05,NNW,337,7.2,7.8,48,0.00,,,0.00,WUHU21623XXSP,2013-05-08 18:00:00,
2013-05-08 14:05:00,75.9,55.4,30.05,NNW,337,2.7,7.2,49,0.00,,,0.00,WUHU21623XXSP,2013-05-08 18:05:00,
2013-05-08 14:10:00,75.9,55.4,30.05,North,0,7.2,7.2,49,0.00,,,0.00,WUHU21623XXSP,2013-05-08 18:10:00,
2013-05-08 14:15:00,76.1,55.6,30.05,NNW,337,3.4,7.2,49,0.00,,,0.00,WUHU21623XXSP,2013-05-08 18:15:00,
2013-05-08 14:20:00,76.6,55.5,30.05,West,270,0.0,6.9,48,0.00,,,0.00,WUHU21623XXSP,2013-05-08 18:20:00,
2013-05-08 14:25:00,76.5,55.9,30.05,NW,315,5.8,5.8,49,0.00,,,0.00,WUHU21623XXSP,2013-05-08 18:25:00,
2013-05-08 14:30:00,76.3,56.9,30.04,WNW,292,5.8,5.8,51,0.00,,,0.00,WUHU21623XXSP,2013-05-08 18:30:00,
2013-05-08 14:35:00,75.6,57.2,30.05,WNW,292,2.0,5.8,53,0.00,,,0.00,WUHU21623XXSP,2013-05-08 18:35:00,
2013-05-08 14:40:00,75.0,57.2,30.04,NW,315,2.2,4.0,54,0.00,,,0.00,WUHU21623XXSP,2013-05-08 18:40:00,
2013-05-08 14:45:00,74.7,56.9,30.04,NW,315,3.1,3.1,54,0.00,,,0.00,WUHU21623XXSP,2013-05-08 18:45:00,
2013-05-08 14:51:00,74.8,57.1,30.04,NW,315,4.5,4.5,54,0.00,,,0.00,WUHU21623XXSP,2013-05-08 18:51:00,
2013-05-08 14:56:00,75.2,56.4,30.04,NW,315,0.0,4.5,52,0.00,,,0.00,WUHU21623XXSP,2013-05-08 18:56:00,
2013-05-08 14:59:00,75.6,56.9,30.04,NW,315,0.0,0.0,52,0.00,,,0.00,WUHU21623XXSP,2013-05-08 18:59:00,
2013-05-08 15:01:00,75.7,56.7,30.04,NE,45,2.5,3.4,52,0.00,,,0.00,WUHU21623XXSP,2013-05-08 19:01:00,
2013-05-08 15:06:00,76.1,56.7,30.04,NE,45,1.8,2.5,51,0.00,,,0.00,WUHU21623XXSP,2013-05-08 19:06:00,
2013-05-08 15:11:00,76.1,56.7,30.04,ENE,67,1.8,5.1,51,0.00,,,0.00,WUHU21623XXSP,2013-05-08 19:11:00,
2013-05-08 15:16:00,75.7,56.4,30.04,North,0,0.4,5.6,51,0.00,,,0.00,WUHU21623XXSP,2013-05-08 19:16:00,
2013-05-08 15:21:00,75.0,56.2,30.04,NW,315,5.4,7.6,52,0.00,,,0.00,WUHU21623XXSP,2013-05-08 19:21:00,
2013-05-08 15:26:00,74.5,56.6,30.04,NW,315,5.4,7.6,53,0.00,,,0.00,WUHU21623XXSP,2013-05-08 19:26:00,
2013-05-08 15:31:00,74.7,55.9,30.04,NNW,337,3.6,5.4,52,0.00,,,0.00,WUHU21623XXSP,2013-05-08 19:31:00,
2013-05-08 15:36:00,76.1,57.2,30.04,WSW,247,0.0,5.4,52,0.00,,,0.00,WUHU21623XXSP,2013-05-08 19:36:00,
2013-05-08 15:41:00,77.7,58.7,30.04,West,270,0.2,2.9,52,0.00,,,0.00,WUHU21623XXSP,2013-05-08 19:41:00,
2013-05-08 15:46:00,79.3,59.1,30.04,West,270,2.5,2.7,50,0.00,,,0.00,WUHU21623XXSP,2013-05-08 19:46:00,
2013-05-08 15:51:00,79.2,59.0,30.03,WSW,247,5.8,5.8,50,0.00,,,0.00,WUHU21623XXSP,2013-05-08 19:51:00,
2013-05-08 15:56:00,79.0,58.8,30.03,West,270,0.0,5.8,50,0.00,,,0.00,WUHU21623XXSP,2013-05-08 19:56:00,
2013-05-08 15:59:00,79.0,58.3,30.03,West,270,0.0,0.0,49,0.00,,,0.00,WUHU21623XXSP,2013-05-08 19:59:00,
2013-05-08 16:01:00,79.0,58.2,30.03,WNW,292,1.3,1.3,49,0.00,,,0.00,WUHU21623XXSP,2013-05-08 20:01:00,
2013-05-08 16:06:00,78.4,57.7,30.03,NW,315,2.0,2.9,49,0.00,,,0.00,WUHU21623XXSP,2013-05-08 20:06:00,
2013-05-08 16:11:00,77.7,57.1,30.03,WSW,247,6.7,6.7,49,0.00,,,0.00,WUHU21623XXSP,2013-05-08 20:11:00,
2013-05-08 16:16:00,77.5,58.0,30.03,WSW,247,6.9,8.9,51,0.00,,,0.00,WUHU21623XXSP,2013-05-08 20:16:00,
2013-05-08 16:21:00,77.5,57.5,30.03,WSW,247,2.2,8.9,50,0.00,,,0.00,WUHU21623XXSP,2013-05-08 20:21:00,
2013-05-08 16:26:00,77.7,57.7,30.03,NW,315,0.0,7.2,50,0.00,,,0.00,WUHU21623XXSP,2013-05-08 20:26:00,
2013-05-08 16:31:00,77.5,56.9,30.03,SSE,157,0.0,6.9,49,0.00,,,0.00,WUHU21623XXSP,2013-05-08 20:31:00,
2013-05-08 16:36:00,77.5,56.9,30.02,SSE,157,0.0,5.6,49,0.00,,,0.00,WUHU21623XXSP,2013-05-08 20:36:00,
2013-05-08 16:41:00,77.5,56.9,30.02,West,270,0.0,1.3,49,0.00,,,0.00,WUHU21623XXSP,2013-05-08 20:41:00,
2013-05-08 16:46:00,77.4,57.3,30.02,West,270,0.0,0.0,50,0.00,,,0.00,WUHU21623XXSP,2013-05-08 20:46:00,
2013-05-08 16:51:00,77.2,57.2,30.02,NW,315,1.3,7.2,50,0.00,,,0.00,WUHU21623XXSP,2013-05-08 20:51:00,
2013-05-08 16:56:00,76.8,56.9,30.02,West,270,2.0,7.2,50,0.00,,,0.00,WUHU21623XXSP,2013-05-08 20:56:00,
2013-05-08 16:59:00,75.9,57.1,30.02,WSW,248,0.9,0.9,52,0.00,,,0.00,WUHU21623XXSP,2013-05-08 20:59:00,
2013-05-08 17:01:00,75.9,57.1,30.02,WSW,247,0.9,2.5,52,0.00,,,0.00,WUHU21623XXSP,2013-05-08 21:01:00,
2013-05-08 17:06:00,75.0,56.7,30.02,SW,225,2.0,2.0,53,0.00,,,0.00,WUHU21623XXSP,2013-05-08 21:06:00,
2013-05-08 17:11:00,74.3,56.5,30.02,SW,225,2.9,2.9,54,0.00,,,0.00,WUHU21623XXSP,2013-05-08 21:11:00,
2013-05-08 17:16:00,73.9,56.2,30.02,SSE,157,1.6,2.9,54,0.00,,,0.00,WUHU21623XXSP,2013-05-08 21:16:00,
2013-05-08 17:21:00,73.8,56.5,30.02,SSE,157,1.3,1.8,55,0.00,,,0.00,WUHU21623XXSP,2013-05-08 21:21:00,
2013-05-08 17:26:00,73.8,56.5,30.02,SSE,157,1.3,2.9,55,0.00,,,0.00,WUHU21623XXSP,2013-05-08 21:26:00,
2013-05-08 17:59:00,77.5,59.7,30.01,West,270,1.3,1.3,54,0.00,,,0.00,WUHU21623XXSP,2013-05-08 21:59:00,
2013-05-08 18:13:00,73.8,56.5,30.02,SSE,157,1.3,2.9,55,0.00,,,0.00,WUHU21623XXSP,2013-05-08 22:13:00,
2013-05-08 18:18:00,73.8,56.5,30.02,SSE,157,1.3,2.9,55,0.00,,,0.00,WUHU21623XXSP,2013-05-08 22:18:00,
2013-05-08 18:23:00,73.8,56.5,30.02,SSE,157,1.3,2.9,55,0.00,,,0.00,WUHU21623XXSP,2013-05-08 22:23:00,
2013-05-08 18:59:00,78.1,57.5,30.01,West,270,1.1,1.1,49,0.00,,,0.00,WUHU21623XXSP,2013-05-08 22:59:00,
2013-05-08 19:59:00,72.5,55.0,30.01,WSW,248,0.0,0.0,54,0.00,,,0.00,WUHU21623XXSP,2013-05-08 23:59:00,
2013-05-08 20:06:00,73.8,56.5,30.02,SSE,157,1.3,2.9,55,0.00,,,0.00,WUHU21623XXSP,2013-05-09 00:06:00,
2013-05-08 20:20:00,73.8,56.5,30.02,SSE,157,1.3,2.9,55,0.00,,,0.00,WUHU21623XXSP,2013-05-09 00:20:00,
2013-05-08 20:28:00,73.8,56.5,30.02,SSE,157,1.3,2.9,55,0.00,,,0.00,WUHU21623XXSP,2013-05-09 00:28:00,
2013-05-08 20:59:00,68.7,55.3,30.03,SSE,158,0.0,0.0,62,0.00,,,0.00,WUHU21623XXSP,2013-05-09 00:59:00,
2013-05-08 21:29:00,73.8,56.5,30.02,SSE,157,1.3,2.9,55,0.00,,,0.00,WUHU21623XXSP,2013-05-09 01:29:00,
2013-05-08 21:59:00,64.6,54.4,30.04,SSE,158,2.2,2.2,69,0.00,,,0.00,WUHU21623XXSP,2013-05-09 01:59:00,
2013-05-08 22:59:00,61.2,53.7,30.05,ENE,68,0.0,0.0,76,0.00,,,0.00,WUHU21623XXSP,2013-05-09 02:59:00,
2013-05-08 23:59:00,61.0,53.8,30.06,ENE,68,0.0,0.0,77,0.00,,,0.00,WUHU21623XXSP,2013-05-09 03:59:00,